Regional Weather Roundup
Issued by NWS Green Bay, WI

Home | Current Version | Previous Version | Graphics & Text | Print | Product List | Glossary Off
Versions: 1 2 3 4 5 6 7 8 9 10 11 12 13 14 15 16 17 18 19 20 21 22 23 24 25 26 27 28 29 30 31 32 33 34 35 36 37 38 39 40 41 42 43 44 45 46 47 48 49 50

000
ASUS43 KGRB 290500
RWRGRB

NORTH-CENTRAL AND NORTHEAST WISCONSIN REGIONAL WEATHER ROUNDUP
NATIONAL WEATHER SERVICE GREEN BAY WI
1200 AM CDT SAT AUG 29 2015

WIZ005-009-010>012-018-019-290600-
NORTH CENTRAL WISCONSIN

CITY           SKY/WX    TMP DP  RH WIND       PRES   REMARKS
IRONWOOD       PTCLDY    64  61  88 SW14G21   30.01R
MANITOWISH WTR NOT AVBL
ARBOR VITAE    NOT AVBL
EAGLE RIVER    NOT AVBL
LAND O LAKES   NOT AVBL
RHINELANDER    CLOUDY    61  55  81 W10       30.10R
PHILLIPS       MOCLDY    59  57  94 SW3       30.09R
ANTIGO         NOT AVBL
TOMAHAWK       NOT AVBL
MERRILL        CLOUDY    59  58  96 CALM      30.09F
$$

WIZ013-073-290600-
NORTHEAST WISCONSIN

CITY           SKY/WX    TMP DP  RH WIND       PRES   REMARKS
IRON MOUNTAIN  CLOUDY    64  59  83 SW10      30.05R
MARINETTE      CLOUDY    63  55  77 W9        30.08S
$$

WIZ017-030-035>037-045-290600-
CENTRAL WISCONSIN

CITY           SKY/WX    TMP DP  RH WIND       PRES   REMARKS
MEDFORD        NOT AVBL
WAUSAU         CLOUDY    59  54  83 S7        30.07F
MOSINEE        NOT AVBL
MARSHFIELD     PTCLDY    56  52  86 SE6       30.07F
WISC RAPIDS    CLOUDY    58  54  86 SE6       30.08F
STEVENS POINT  NOT AVBL
WAUPACA        NOT AVBL
SHAWANO        NOT AVBL
CLINTONVILLE   CLOUDY    59  54  82 S9        30.11S
WAUTOMA        NOT AVBL
$$

WIZ038-039-048-051-290600-
FOX VALLEY

CITY           SKY/WX    TMP DP  RH WIND       PRES   REMARKS
NWS GREEN BAY  CLOUDY    59  55  87 SW9G18    30.13S
APPLETON       NOT AVBL
OSHKOSH        HVY RAIN  57  55  93 CALM      30.12F FOG
FOND DU LAC    HVY RAIN  59  57  93 NE6       30.12R FOG
$$

WIZ022-050-052-290600-
EAST CENTRAL WISCONSIN

CITY           SKY/WX    TMP DP  RH WIND       PRES   REMARKS
EPHRAIM        NOT AVBL
STURGEON BAY   CLOUDY    61  55  82 SW13      30.12F
MANITOWOC      NOT AVBL
SHEBOYGAN      LGT RAIN  60  58  92 N6        30.11F
$$

LMZ563-521-522-541>543-290600-
LAKESHORE

STATION/POSITION TIME  TEMP    WIND        PRES    VSBY  WAVE
                       AIR SEA DIR/SP/G                  HT/PER
                 (UTC) (F)     (DEG/KT/KT) (MB)    (MI)  (FT/S)
SHEBOYGAN LKSHOR 0400   60     210/  3/  4 1020.6R
ALGOMA MARINA    0414          260/  6/  8   N/A
NORTHPORT PIER   0400   64     190/  4/  6 1018.3S
N MID LAKE BUOY  0350   63 64  230/ 12/ 14 1018.3R         3/ 5
S GREEN BAY BUOY 0400   63 62  230/  6/  8 1020.9
SISTER BAY LKSHO 0419   64     230/ 16/ 18   N/A
CHAMBERS ISLAND  0400   63     190/  8/ 14 1018.6R
$$


USA.gov is the U.S. government's official web portal to all federal, state and local government web resources and services.